Dean International
Flight School

Career Spotlight

Mika

Mika

Congratulations to Mika from Khazakstan. She recently sent us this photo of her flying an Airbus airliner.

More...
Mika's Success Story
close

Congratulations to Mika from Khazakstan. She recently sent us this photo of her flying an Airbus airliner.

Mario

Mario

My dreams could not have been realized if I wouldn't have been part of the Dean International family.

More...
Mario's Success Story
close

"My dreams could not have been realized if I wouldn't have been part of the Dean International family. Thank you Robert, thanks to all my co-workers, and thanks to all of my students!"

Fernando

Fernando

I am now working as a First Officer at TACA and am enjoying every moment of it.

More...
Fernando's Success Story
close

"Will never forget my time of flight training at Dean International. I am now working as a First Officer at TACA and am enjoying every moment of it."

Alvaro

Alvaro

Because of the flight time I was able to built while instructing, I got the experience needed to apply to an airline in Colombia.

More...
Alvaro's Success Story
close

Dean alumnus Alvaro Londoño currently flies with Tampa Cargo. He says of his experience at Dean: "I want to take this opportunity to thank you for giving me the chance to build my experience and expand my knowledge in Dean International. Because of the flight time I was able to built flight instructing, I got the experience needed to apply to an airline in Colombia."

Ralph

Ralph

Every Aruban student of Dean International has made it into Tiara Air Aruba, that is very nice.

More...
Ralph's Success Story
close

"Next to me is my Co-Pilot, Elison. This picture was taken on our first flight together, which was almost exactly 5 years after I finished at Dean International. [...] Every Aruban student of Dean International has made it into Tiara Air Aruba. [...] The future looks bright here in Aruba."

Rohaan

Rohaan

The [..] staff will all work diligently to help you finish your certificates as safely and efficiently as possible.

More...
Rohaan's Success Story
close

After receiving very hard times from other flight schools [...], I came to Dean International where Robert Dean personally sat down with me and gave me a financial and chronological look into how much remained to finish my private pilot certificate. Through his hard efforts as an instructor and mentor, I was able to finish my private pilot certificate within one week.

Welcome to Dean International

In over two decades, Dean International has educated over 7,000 pilots from all over the world, including over 1,000 students from India alone. By offering a great training experience, a friendly service staff, an ample variety of aircraft, and by improving constantly, we have become one of the largest, most prestigious FAA 141-approved flight schools in North America. Located in Miami, Florida, USA, our flight school offers an ideal location for year-round, "learn to fly" weather, flight training. Dean International is not only well-equipped to provide services to professional trainees but also caters to General Aviation renters. Visit or contact our headquarters at Kendall-Tamiami Executive Airport located in Miami, FL today to learn more about us, or simply read more about our programs if you are an international student interested in joining our school.

Local Airport Information
TAF FOR KTMB (Issued: Thu, May 5th 2016 10:03 AM UTC)
TAF
      AMD KTMB 051000Z 0510/0606 31012KT P6SM FEW035 SCT250
      FM051400 32012G19KT P6SM FEW250
      FM060000 27008KT P6SM SKC
     
METAR FOR KTMB (Issued: Thu, May 5th 2016 9:53 AM UTC):
KTMB 050953Z AUTO 31013KT 10SM FEW035 20/17 A2976 RMK AO2 SLP078 T02000172 TSNO

This weather information is provided by the National Weather Service.
It is automatically refreshed every three minutes.
TAF FOR KHST (Issued: Thu, May 5th 2016 8:07 AM UTC)
TAF KHST 050800Z 0508/0614 32009KT 9999 SKC QNH2968INS
      BECMG 0515/0516 32010G15KT 9999 SKC QNH2978INS
      BECMG 0600/0601 27009KT 9999 SKC QNH2975INS
      BECMG 0608/0609 25006KT 9999 FEW020 QNH2978INS TX27/0521Z TN20/0510Z
     
METAR FOR KHST (Issued: Thu, May 5th 2016 9:58 AM UTC):
KHST 050958Z AUTO 31005KT 10SM BKN038 20/18 A2977 RMK AO2 SLP084 T02030178

This weather information is provided by the National Weather Service.
It is automatically refreshed every three minutes.
TAF FOR KOPF (Issued: Thu, May 5th 2016 10:03 AM UTC)
TAF
      AMD KOPF 051000Z 0510/0606 30010KT P6SM SCT250
      FM051400 32012G22KT P6SM FEW250
      FM060000 29008KT P6SM SKC
     
METAR FOR KOPF (Issued: Thu, May 5th 2016 9:53 AM UTC):
KOPF 050953Z AUTO 30010KT 10SM CLR 20/17 A2976 RMK AO2 SLP078 T02000167 $

This weather information is provided by the National Weather Service.
It is automatically refreshed every three minutes.
TAF FOR KMIA (Issued: Thu, May 5th 2016 10:06 AM UTC)
TAF
      AMD KMIA 051000Z 0510/0606 30010KT P6SM SCT250
      FM051400 32013G20KT P6SM FEW250
      FM060000 28007KT P6SM SKC
     
METAR FOR KMIA (Issued: Thu, May 5th 2016 9:53 AM UTC):
KMIA 050953Z 30010G17KT 10SM CLR 20/16 A2976 RMK AO2 SLP077 T02000161 $

This weather information is provided by the National Weather Service.
It is automatically refreshed every three minutes.
Design by Ariel Llizo
© Dean International Inc. 2012